GES001 LIMJ-EDVK

Flight info

Callsign GES001
Flight time N/A
Altitude 47000
Route GEN DCT ABESI N851 UTAVO DCT ROMIR N851 RIMKI Z99 ELNAT
Aircraft GLF5/M-SBDE2E3FGHIJ3J4J5P2RWXY/LB1D1

Departure

Time 2026-04-26 21:58
Airport Genoa Cristoforo Colombo Airport (LIMJ)

Arrival

Time N/A
Airport Kassel Airport (EDVK)
Time Latitude Longitude Altitude Speed Heading
2026-04-26 21:58 44.43751 8.86560 16190 ft 351 kts
2026-04-26 21:58 44.46170 8.86783 17582 ft 356 kts
2026-04-26 21:58 44.48700 8.86983 18853 ft 366 kts
2026-04-26 21:58 44.51230 8.87170 20283 ft 371 kts
2026-04-26 21:59 44.53801 8.87354 21621 ft 378 kts
2026-04-26 21:59 44.56417 8.87538 22920 ft 384 kts
2026-04-26 21:59 44.59107 8.87727 24181 ft 392 kts
2026-04-26 21:59 44.61813 8.87918 25374 ft 400 kts
2026-04-26 22:00 44.64602 8.88114 26558 ft 407 kts
2026-04-26 22:00 44.67459 8.88316 27666 ft 415 kts
2026-04-26 22:00 44.70343 8.88518 28721 ft 422 kts
2026-04-26 22:00 44.73321 8.88728 29767 ft 430 kts
2026-04-26 22:01 44.76353 8.88941 30744 ft 437 kts
2026-04-26 22:01 44.79404 8.89156 31715 ft 442 kts
2026-04-26 22:01 44.82523 8.89377 32687 ft 447 kts
2026-04-26 22:01 44.85680 8.89600 33536 ft 452 kts
2026-04-26 22:02 44.88894 8.89828 34295 ft 458 kts
2026-04-26 22:02 44.92093 8.90056 35167 ft 458 kts
2026-04-26 22:02 44.95325 8.90286 36118 ft 454 kts
2026-04-26 22:02 44.98463 8.90509 37014 ft 451 kts
2026-04-26 22:03 45.01642 8.90735 38017 ft 449 kts
2026-04-26 22:03 45.04807 8.90961 38941 ft 447 kts
2026-04-26 22:03 45.07946 8.91185 39750 ft 445 kts
2026-04-26 22:03 45.11083 8.91409 40438 ft 444 kts
2026-04-26 22:04 45.14170 8.91630 41009 ft 443 kts
2026-04-26 22:04 45.17308 8.91854 41534 ft 443 kts
2026-04-26 22:04 45.20361 8.92073 42068 ft 442 kts
2026-04-26 22:04 45.23487 8.92297 42550 ft 442 kts
2026-04-26 22:05 45.26571 8.92518 42963 ft 444 kts
2026-04-26 22:05 45.29697 8.92743 43422 ft 443 kts
2026-04-26 22:05 45.32789 8.92965 43839 ft 444 kts
2026-04-26 22:05 45.35875 8.93188 44241 ft 444 kts
2026-04-26 22:06 45.39005 8.93414 44655 ft 444 kts
2026-04-26 22:06 45.42075 8.93636 45017 ft 444 kts
2026-04-26 22:06 45.45099 8.93854 45388 ft 445 kts
2026-04-26 22:06 45.48192 8.94078 45815 ft 444 kts
2026-04-26 22:07 45.51298 8.94303 46249 ft 443 kts
2026-04-26 22:07 45.54380 8.94527 46639 ft 443 kts
2026-04-26 22:07 45.57483 8.94752 47000 ft 443 kts
2026-04-26 22:07 45.60584 8.94977 47115 ft 450 kts
2026-04-26 22:08 45.67002 8.95444 47128 ft 468 kts
2026-04-26 22:08 45.73653 8.95932 47135 ft 479 kts
2026-04-26 22:09 45.80337 8.96448 47123 ft 477 kts
2026-04-26 22:09 45.86969 8.96963 47128 ft 470 kts
2026-04-26 22:10 45.93537 8.97472 47131 ft 469 kts
2026-04-26 22:10 46.00100 8.97983 47129 ft 471 kts
2026-04-26 22:11 46.06664 8.98495 47131 ft 471 kts
2026-04-26 22:11 46.13226 8.99008 47142 ft 471 kts
2026-04-26 22:12 46.19768 8.99521 47146 ft 472 kts
2026-04-26 22:12 46.26369 9.00040 47163 ft 471 kts
2026-04-26 22:13 46.32923 9.00557 47182 ft 470 kts
2026-04-26 22:13 46.39385 9.01067 47213 ft 471 kts
2026-04-26 22:14 46.46030 9.01593 47232 ft 472 kts
2026-04-26 22:14 46.52660 9.02119 47244 ft 472 kts
2026-04-26 22:15 46.59284 9.02646 47237 ft 471 kts
2026-04-26 22:15 46.65866 9.03171 47238 ft 470 kts
2026-04-26 22:16 46.72476 9.03699 47231 ft 470 kts
2026-04-26 22:16 46.79111 9.04232 47243 ft 471 kts
2026-04-26 22:17 46.85725 9.04763 47248 ft 472 kts
2026-04-26 22:17 46.92347 9.05296 47252 ft 472 kts
2026-04-26 22:18 46.98938 9.05828 47275 ft 470 kts
2026-04-26 22:18 47.05495 9.06359 47272 ft 470 kts
2026-04-26 22:19 47.12087 9.06894 47253 ft 470 kts
2026-04-26 22:19 47.15991 9.07211 47256 ft 470 kts